Location: Faye
(46.1847°N, 1.1523°E)
Time: 07:16:02
(UTC+00:00)

Daily predictions for brighter satellites

Satellite Brightness Start Highest point End
(mag) Time Altitude Azimuth Time Altitude Azimuth Time Altitude Azimuth
Cosmos 1900 4.5 19:39:22 10° SSW 19:44:09 54° ESE 19:49:03 10° NE
MONITOR-E 3.5 19:45:29 10° SSE 19:47:50 63° ENE 19:50:12 10° N
USA 267 3.5 19:43:14 10° ENE 19:49:29 46° SE 19:55:43 10° SSW
Cosmos 1408 Rocket 4.5 19:46:35 10° SSW 19:50:58 56° WNW 19:55:23 10° N
Cosmos 1821 Rocket 4.5 19:46:13 10° SSE 19:51:49 39° E 19:57:32 10° NNE
Shenzhou-11 Module 2.2 19:51:06 10° WSW 19:53:19 34° S 19:55:30 10° ESE
COSMOS 2406 3.5 19:47:55 10° S 19:53:23 47° ESE 19:58:51 10° NE
Cosmos 1743 Rocket 3.6 19:50:22 10° S 19:54:47 85° E 19:59:18 10° N
Cosmos 2366 rocket 4.1 19:49:21 10° S 19:55:37 85° W 20:01:52 10° N
SL-16 R/B 4.5 19:54:51 10° NNE 19:56:37 11° NNE 19:58:22 10° NE
CZ-2C R/B 3.9 19:52:24 10° NNE 19:56:54 49° E 20:01:18 10° S
Intercosmos 25 4.1 19:53:51 10° N 19:58:06 36° ENE 20:01:18 10° SE
MOS 1 Rocket 4.4 19:53:19 10° N 19:58:40 58° WNW 20:03:55 10° SSW
Lacrosse 5 3.7 19:55:08 10° NW 19:59:18 25° N 20:03:28 10° ENE
Cosmos 2369 4.4 19:57:26 10° NNW 20:02:53 42° NE 20:08:05 11° SE
Cosmos 1862 3.5 19:59:07 10° S 20:03:03 54° E 20:07:02 10° NNE
Sich 1 3.7 19:59:57 10° SSE 20:04:02 37° E 20:08:07 10° NNE
SJ-6B 3.8 20:01:35 10° S 20:05:33 51° W 20:09:30 10° NNW
BREEZE-M DEB (TANK) 2.8 20:03:14 10° W 20:07:16 53° NNW 20:09:16 10° ENE
Meteor 2-6 Rocket 4.2 20:01:50 10° N 20:07:21 84° E 20:12:59 10° SSE
Cosmos 1818 3.8 20:02:00 10° NNW 20:07:25 59° NE 20:12:24 12° SE
IRIDIUM 106 4.4 20:02:50 10° SSE 20:07:57 61° E 20:13:07 10° N
Cosmos 2082 Rocket 3.2 20:04:06 10° SSE 20:08:43 26° ESE 20:13:19 10° NE
Cosmos 1500 Rocket 4.1 20:09:57 10° SSW 20:14:12 63° W 20:18:31 10° N
Spot 2 Rocket 4.3 20:11:25 12° SE 20:15:42 36° ENE 20:20:21 10° N
Ariane Rocket 4.4 20:13:11 10° SSW 20:17:52 38° W 20:22:35 10° NNW
Resurs 1-3 3.8 20:14:54 10° S 20:19:16 75° WSW 20:23:41 10° NNW
USA 186 4.2 20:18:23 10° WSW 20:19:17 12° W 20:20:12 10° WNW
Cosmos 2322 Rocket 4.4 20:16:41 10° N 20:19:18 13° NE 20:21:55 10° ENE
Meteor 1-4 Rocket 3.7 20:17:35 10° NNE 20:20:34 26° ENE 20:22:27 17° ESE
Cosmos 1190 Rocket 4.5 20:16:38 10° S 20:21:29 39° ESE 20:26:24 10° NE
Terra 3.7 20:21:09 10° E 20:23:57 16° ENE 20:26:47 10° NNE
Cosmos 407 Rocket 3.7 20:19:14 10° S 20:24:22 51° ESE 20:29:30 10° NNE
CZ-2C R/B 3.2 20:19:33 10° N 20:24:39 60° WNW 20:29:45 10° SSW
USA 234 3.6 20:18:46 10° ESE 20:25:05 60° NNE 20:31:30 10° NW
SL-8 R/B 4.1 20:20:29 10° WNW 20:25:12 53° SSW 20:28:49 16° SE
Cosmos 1666 Rocket 4.0 20:21:35 10° SSE 20:25:36 40° E 20:29:40 10° NNE
Cosmos 1238 Rocket 4.5 20:28:02 11° E 20:28:02 11° E 20:28:34 10° ENE
MetOp-B 4.2 20:25:44 12° SSE 20:30:35 64° ENE 20:35:54 10° N
Meteor 1-27 Rocket 3.9 20:25:32 10° N 20:31:27 70° ENE 20:36:53 12° SSE
Meteor 1-10 Rocket 4.4 20:26:19 10° NNW 20:31:58 76° W 20:37:43 10° S
USA 238 DEB 4.4 20:31:33 10° S 20:37:05 29° ESE 20:42:49 10° NE
BREEZE-M DEB (TANK) 3.6 20:32:42 10° WNW 20:37:05 25° SW 20:39:00 14° S
USA 238 4.4 20:31:42 10° S 20:37:13 29° ESE 20:42:54 10° NE
Cosmos 1805 Rocket 3.8 20:32:53 10° SSW 20:37:18 74° W 20:41:47 10° N
SPOT 5 4.0 20:35:54 17° ESE 20:38:04 24° ENE 20:41:34 10° N
Cosmos 1980 Rocket 2.6 20:37:52 10° NNW 20:43:25 51° ENE 20:47:05 21° SE
SPOT 1/Viking Rocket 3.9 20:39:53 19° SE 20:43:30 52° ENE 20:48:34 10° N
SL-4 R/B 1.8 20:42:59 10° SW 20:46:53 54° SE 20:50:29 10° ENE
BREEZE-M DEB (TANK) 2.7 20:45:28 10° W 20:48:03 64° N 20:54:20 10° ENE
Genesis I 4.0 20:45:08 10° NNW 20:48:49 40° NE 20:50:44 23° ESE
Cosmos 405 Rocket 4.1 20:49:22 19° E 20:49:26 19° E 20:52:08 10° NE
Cosmos 1140 Rocket 3.5 20:44:49 10° S 20:50:00 66° ESE 20:55:13 10° NNE
ATLAS 5 CENTAUR R/B 3.2 20:46:19 10° NW 20:51:53 47° WSW 20:57:17 14° S
Cosmos 1023 Rocket 4.4 20:49:16 10° SSW 20:54:30 74° ESE 20:59:48 10° NNE
Cosmos 389 Rocket 4.1 20:51:51 10° NNW 20:54:57 32° W 20:58:03 10° SSW
USA 32 4.3 20:53:02 21° SSE 20:56:22 50° E 21:01:25 10° NNE
Cosmos 1812 4.0 20:54:27 10° NNW 20:58:03 39° W 21:01:38 10° SSW
Cosmos 1633 Rocket 3.0 20:55:05 14° S 20:58:50 77° E 21:03:16 10° NNE
Cosmos 1833 Rocket 2.8 20:53:29 10° SSW 20:59:06 81° WNW 21:04:47 10° NNE
Cosmos 1697 Rocket 2.8 20:53:35 10° NNW 20:59:11 72° WSW 21:03:04 20° SSE
Cosmos 1867 3.6 21:00:10 10° SSW 21:05:27 55° ESE 21:10:47 10° NE
CENTAUR R/B 3.3 21:04:46 25° SE 21:05:46 26° ESE 21:11:05 10° ENE
Okean 1-7 4.3 21:03:58 10° NNE 21:07:33 24° ENE 21:08:30 23° E
Resurs 01 Rocket 3.0 21:05:22 10° SSW 21:09:23 34° W 21:13:27 10° NNW
Cosmos 1707 Rocket 4.2 21:05:25 10° NNW 21:09:39 51° W 21:12:53 16° SSW
Landsat 7 3.9 21:09:00 22° S 21:12:02 74° WSW 21:16:48 10° NNW
FALCON 9 DEB 3.0 21:09:07 10° SW 21:12:35 65° SE 21:15:22 15° ENE
deb Kosmos-1763 3.9 21:14:16 24° SSW 21:16:22 87° ESE 21:20:02 10° NNE
Cosmos 676 Rocket 3.9 21:14:03 12° SSW 21:18:53 74° ESE 21:24:14 10° NNE
IGS 5A 3.9 21:17:35 24° S 21:19:51 55° W 21:23:57 10° NNW
Cosmos 192 4.3 21:16:00 10° NNW 21:20:56 81° ENE 21:22:57 36° SSE
ATLAS 5 CENTAUR R/B 3.8 21:18:55 10° N 21:20:58 18° NE 21:23:25 13° E
Meteor 1-25 Rocket 4.1 21:17:53 24° S 21:21:16 68° E 21:26:50 10° NNE
Cosmos 1470 Rocket 3.5 21:19:31 31° S 21:21:33 75° E 21:25:58 10° NNE
Cosmos 1934 Rocket 4.2 21:17:12 10° SSW 21:23:32 73° W 21:29:56 10° N
Aureole 1 Rocket 4.4 21:17:57 10° SSW 21:24:39 89° ESE 21:32:56 10° NNE
Shenzhou-11 Module 4.5 21:25:12 10° WSW 21:25:14 10° WSW 21:25:14 10° WSW
GP-B 3.4 21:23:39 10° N 21:28:03 63° W 21:30:41 23° SSW
NOSS 3-2 (A) 3.3 21:25:52 10° SSW 21:31:26 64° ESE 21:37:48 10° NE
USA 267 3.7 21:26:12 10° NE 21:32:40 66° NNW 21:39:07 10° WSW
Cosmos 921 Rocket 2.8 21:29:41 10° NNW 21:33:56 79° ENE 21:34:50 54° SE
Cosmos 1862 Rocket 4.1 21:31:51 10° NNW 21:36:14 56° W 21:38:10 30° SSW
NOSS 3-2 (C) 3.6 21:35:51 36° SSE 21:37:26 44° ESE 21:43:27 10° NE
ERS-1 Rocket 3.0 21:36:08 36° S 21:38:14 78° WSW 21:43:18 10° NNW
SAR-Lupe-2 3.5 21:37:51 10° NNE 21:41:27 84° WNW 21:41:55 65° SSW
SL-16 R/B 2.8 21:36:48 10° NNW 21:42:17 46° ENE 21:44:17 33° ESE
Lacrosse 5 2.5 21:38:20 10° NW 21:43:16 48° NNE 21:45:31 29° E
Cosmos 468 Rocket 4.1 21:38:55 10° NNW 21:44:13 66° ENE 21:45:45 45° SE
Cosmos 1741 Rocket 4.2 21:48:23 47° SE 21:49:07 51° ESE 21:54:14 10° NNE
Cosmos 1954 Rocket 4.5 21:47:01 10° SSW 21:52:16 62° WNW 21:57:35 10° NNE
Cosmos 2082 Rocket 2.9 21:46:52 10° SW 21:52:27 54° WNW 21:58:01 10° NNE
CARTOSAT-1 4.3 21:57:12 36° SW 21:58:23 45° W 22:02:34 10° NNW
Terra 1.9 22:00:02 52° S 22:01:07 74° WSW 22:05:54 10° NNW
Cosmos 1933 Rocket 4.0 22:01:23 38° SW 22:02:49 58° WNW 22:07:13 10° N
Cosmos 2322 Rocket 2.5 21:59:06 10° NNW 22:04:42 55° ENE 22:06:13 43° ESE
Okean 1 3.8 22:02:44 10° NNW 22:06:41 53° W 22:07:06 50° WSW
Cosmos 1238 Rocket 3.9 22:06:54 28° W 22:06:58 28° WNW 22:09:36 10° NNW
Cosmos 2100 Rocket 3.9 22:05:35 47° SSE 22:07:18 67° E 22:13:24 10° NNE
Cosmos 1602 4.4 22:06:47 45° WSW 22:07:27 51° WNW 22:11:19 10° N
USA 234 3.6 22:06:06 39° S 22:08:10 52° SW 22:14:33 10° WNW
Meteor 1-11 Rocket 4.4 22:09:09 36° E 22:09:25 36° E 22:14:35 10° NNE
Cosmos 1437 Rocket 2.8 22:07:16 10° NNW 22:10:50 68° WNW 22:10:50 68° WNW
Cosmos 1869 Rocket 3.5 22:13:01 72° E 22:13:01 72° E 22:17:24 10° NNE
SPOT 5 3.7 22:15:08 32° SW 22:16:01 35° W 22:20:01 10° NNW
Cosmos 2360 Rocket 3.0 22:13:28 10° NNW 22:18:49 40° NE 22:20:19 34° E
ATLAS 3B R/B 3.3 22:21:12 34° ESE 22:21:12 34° ESE 22:26:24 10° NE
JB-3 4.4 22:16:47 10° N 22:20:44 74° WNW 22:20:44 74° WNW
Geosat 4.0 22:20:48 58° ESE 22:21:34 68° ENE 22:26:35 10° NNW
Iridium 4 Rocket 3.0 22:21:45 78° ENE 22:21:45 78° ENE 22:25:51 10° N
Cosmos 2173 Rocket 3.8 22:21:11 51° S 22:22:50 82° E 22:29:01 10° N
Cosmos 1703 Rocket 4.1 22:19:41 10° NNW 22:23:53 49° W 22:24:15 47° WSW
Cosmos 1500 3.8 22:25:10 53° N 22:25:10 53° N 22:28:06 10° N
Cosmos 405 Rocket 4.2 22:24:29 27° W 22:25:13 29° WNW 22:28:31 10° N
SL-4 R/B 2.8 22:22:53 10° W 22:26:32 44° NNW 22:27:12 39° NNE
Cosmos 1980 Rocket 3.6 22:22:24 10° NW 22:27:07 27° WSW 22:28:51 23° SW
USA 238 DEB 4.0 22:20:55 10° SW 22:27:31 66° NW 22:34:26 10° NE
USA 238 4.0 22:21:02 10° SW 22:27:37 66° NW 22:34:32 10° NE
ALOS 2 4.0 22:27:44 27° ENE 22:27:44 27° ENE 22:31:23 10° N
Cosmos 1725 Rocket 4.2 22:27:19 48° ESE 22:28:13 51° E 22:34:19 10° NNE
Cosmos 1763 Rocket 3.7 22:25:11 10° NNW 22:30:26 60° WSW 22:31:09 55° SW
Cosmos 1536 4.2 22:34:39 30° NE 22:34:39 30° NE 22:37:05 10° NNE
Cosmos 1666 4.1 22:37:32 32° NE 22:37:32 32° NE 22:39:45 10° NNE
Cosmos 2333 Rocket 3.8 22:34:13 10° N 22:39:08 27° NE 22:41:19 22° E
Cosmos 2016 Rocket 3.9 22:39:51 59° SSE 22:41:04 77° E 22:47:27 10° N
Meteor 1-5 Rocket 4.3 22:40:38 58° SSW 22:41:55 85° WNW 22:47:55 10° N
Cosmos 2061 Rocket 3.9 22:41:22 61° SSE 22:42:28 78° E 22:48:41 10° N
Lacrosse 4 Rocket 3.9 22:45:23 12° ENE 22:45:23 12° ENE 22:45:50 10° ENE
Meteor 1-13 Rocket 4.0 22:37:16 10° N 22:42:50 86° ENE 22:43:23 74° SSE
Cosmos 1459 Rocket 4.1 22:42:36 46° SSW 22:44:30 72° W 22:50:53 10° N
Okean 1-7 4.3 22:41:17 10° NNW 22:45:10 32° W 22:45:21 32° W
MOS 1-B Rocket 3.7 22:40:09 10° NNE 22:45:53 88° ESE 22:46:44 66° S
Cosmos 2221 Rocket 3.7 22:42:25 10° N 22:46:29 73° N 22:46:29 73° N
Cosmos 1733 Rocket 3.8 22:50:59 45° NE 22:50:59 45° NE 22:54:20 10° NNE
Okean 3 3.9 22:46:47 10° NNW 22:50:30 60° NW 22:50:30 60° NW
SL-27 R/B 4.3 22:53:09 28° NNW 22:53:09 28° NNW 22:55:05 10° N
Cosmos 1066 Rocket 4.3 22:47:38 10° N 22:53:20 63° ENE 22:53:46 60° E
Cosmos 1864 Rocket 4.3 22:53:23 66° SSE 22:54:17 81° E 23:00:32 10° N
Meteor 1-23 Rocket 4.3 22:49:21 10° N 22:55:10 63° ENE 22:55:43 60° ESE
CENTAUR R/B 2.8 22:51:50 24° SW 22:55:40 68° NW 23:02:50 10° NE
Thor Agena Rocket 3.4 22:52:00 10° NNE 22:57:00 79° E 22:57:00 79° E
Meteor 2-4 Rocket 4.4 22:54:45 10° NNW 23:00:05 43° W 23:00:58 40° WSW
Cosmos 967 Rocket 4.3 22:53:44 10° NW 23:00:09 89° WSW 23:01:03 68° SSE
Cosmos 1802 Rocket 4.2 22:58:40 48° SW 23:00:24 68° W 23:06:47 10° N
Cosmos 44 3.4 22:56:58 10° NW 23:01:33 74° WNW 23:01:33 74° WNW
Spot 4 4.0 23:06:33 67° WNW 23:06:33 67° WNW 23:11:05 10° NNW
Cosmos 2233 Rocket 3.9 23:14:31 69° SE 23:15:09 75° E 23:21:29 10° NNE
Cosmos 841 Rocket 4.3 23:17:30 10° NW 23:22:05 40° W 23:22:05 40° W
Cosmos 540 Rocket 4.3 23:18:42 10° NW 23:23:10 40° W 23:23:10 40° W
SL-16 R/B 3.3 23:21:17 10° NW 23:26:08 31° WSW 23:26:08 31° WSW
Lacrosse 5 3.0 23:21:26 10° WNW 23:24:41 33° W 23:24:41 33° W
NOSS 3-2 (C) 4.5 23:23:11 12° WSW 23:28:21 43° NW 23:34:45 10° NNE
Cosmos 1833 4.0 23:28:44 88° E 23:28:44 88° E 23:34:25 10° NNE
Cosmos 2322 3.7 23:23:34 10° NNW 23:29:16 72° ENE 23:29:31 71° E
Cosmos 1378 Rocket 4.2 23:25:16 10° N 23:28:49 56° N 23:28:49 56° N
Cosmos 2219 Rocket 2.4 23:32:09 10° NNW 23:37:47 59° ENE 23:38:19 57° E
Tsikada Rocket 4.3 23:32:50 10° NNW 23:39:00 54° W 23:39:45 51° WSW
Cosmos 1975 Rocket 4.2 23:38:51 10° N 23:42:25 39° NE 23:42:25 39° NE
Cosmos 2333 4.1 23:37:51 10° NNW 23:43:42 89° WSW 23:43:44 89° S
Cosmos 2322 Rocket 3.6 23:43:48 10° NW 23:48:01 25° W 23:48:01 25° W
Helios 1A 3.9 23:49:48 47° N 23:49:48 47° N 23:52:57 10° N
Cosmos 1486 Rocket 4.0 23:52:11 76° N 23:52:11 76° N 23:57:03 10° NNE
